Find Starlink 30934

NORAD ID: 58395 Int'l Des: 2023-178 Owner: SPXS Country: US Constellation: starlink operational
LEOCIRCULAR

Live-Position

3D-Globus wird geladen...

Über Starlink 30934

Beschreibung wird geladen...

Nächste Überflüge

Passes for default location (London). Set your location on the main map for personalized predictions.

Höhenverlauf

Loading altitude history...

Zweizeiliger Elementsatz

1 58395U 23178X 26132.94544712 -.00000180 00000-0 58076-5 0 9992
2 58395 53.1616 62.3750 0001215 81.7844 278.3296 15.34392061139664
Epoch: 12. Mai 2026 • Age: 7 hours

Aktueller Status

Höhe 468.4 km
Geschwindigkeit 7.64 km/s
Subsatellitenpunkt 53.13°N, 153.55°W
Startdatum 20. Nov. 2023
Alter 2.4 years
Typ internet

Technische Details

Klassifizierung Payload
Masse 730.00 kg
Trockenmasse 700.00 kg
Gesamtmasse 730.00 kg
Länge 0.30 m
Durchmesser 4.10 m
Spannweite 29.00 m
Form Box + pan
Hersteller SPXS
Bus-Typ Starlink V2M
Phasenstatus In Orbit
Besitzer/Staat SPXS/US

Most Searched